Location: La Chapelle
(48.3135°N, 1.3085°W)
Time: 00:16:37
(UTC+00:00)

Ariane Rocket - Pass Details

Date: 03 March 2021
Orbit: 759 x 771 km, 98.7° (Epoch: 14 April)

Event Time Altitude Azimuth Distance (km) Brightness Sun altitude
Exits shadow 18:42:04 10° 109° (ESE) 2,343 4.9 -9.0°
Reaches altitude 10° 18:42:10 10° 108° (ESE) 2,315 4.9 -9.0°
Maximum altitude 18:46:00 22° 59° (ENE) 1,642 4.2 -9.7°
Drops below altitude 10° 18:49:50 10° 10° (N) 2,324 5.4 -10.3°
Sets 18:52:36 0° 356° (N) 3,253 6.3 -10.8°
